This is the latest recevied weather packets stored in our database for station/object AI5YA-13. If no packets are shown the sender has not sent any weather packets the latest 1 day(s).
| Time | Temp. | Humidity | Pressure | Rain* | Wind** | Luminosity | Snow |
|---|---|---|---|---|---|---|---|
| 1778005956 | 26.67° C | 26% | 1010.6 hPa | 0 mm | 0 m/s | 285 W/m² | - |
| 1778005653 | 26.67° C | 27% | 1010.4 hPa | 0 mm | 0 m/s | 347 W/m² | - |
| 1778005349 | 26.67° C | 27% | 1010.2 hPa | 0 mm | 0 m/s | 307 W/m² | - |
| 1778005046 | 26.11° C | 28% | 1010.3 hPa | 0 mm | 0 m/s | 285 W/m² | - |
| 1778004744 | 26.11° C | 27% | 1010.4 hPa | 0 mm | 0 m/s | 240 W/m² | - |
| 1778004440 | 26.11° C | 27% | 1010.6 hPa | 0 mm | 0 m/s | 236 W/m² | - |
| 1778004137 | 26.67° C | 27% | 1010.6 hPa | 0 mm | 0 m/s | 231 W/m² | - |
| 1778003833 | 27.22° C | 26% | 1010.8 hPa | 0 mm | 0 m/s | 284 W/m² | - |
| 1778003529 | 27.22° C | 27% | 1010.8 hPa | 0 mm | 0 m/s | 343 W/m² | - |
| 1778003226 | 27.22° C | 27% | 1010.4 hPa | 0 mm | 0 m/s | 327 W/m² | - |
| 1778002923 | 26.67° C | 27% | 1010.7 hPa | 0 mm | 0 m/s | 341 W/m² | - |
| 1778002619 | 27.22° C | 26% | 1010.7 hPa | 0 mm | 0 m/s | 396 W/m² | - |
| 1778002316 | 26.67° C | 27% | 1010.7 hPa | 0 mm | 0 m/s | 468 W/m² | - |
| 1778002013 | 26.67° C | 27% | 1010.8 hPa | 0 mm | 0 m/s | 352 W/m² | - |
| 1778001710 | 26.67° C | 26% | 1010.6 hPa | 0 mm | 0 m/s | 391 W/m² | - |
| 1778001409 | 26.67° C | 27% | 1010.4 hPa | 0 mm | 0 m/s | 401 W/m² | - |
| 1778001107 | 26.11° C | 27% | 1010.4 hPa | 0 mm | 0 m/s | 370 W/m² | - |
| 1778000804 | 26.67° C | 27% | 1010.8 hPa | 0 mm | 0 m/s | 314 W/m² | - |
| 1778000501 | 26.67° C | 27% | 1010.7 hPa | 0 mm | 0 m/s | 400 W/m² | - |
| 1778000201 | 26.11° C | 27% | 1010.7 hPa | 0 mm | 0 m/s | 461 W/m² | - |
| 1777999897 | 26.11° C | 27% | 1010.7 hPa | 0 mm | 0 m/s | 464 W/m² | - |
| 1777999592 | 26.11° C | 27% | 1010.7 hPa | 0 mm | 0 m/s | 263 W/m² | - |
| 1777999290 | 26.11° C | 26% | 1010.7 hPa | 0 mm | 0 m/s | 363 W/m² | - |
| 1777998988 | 26.11° C | 27% | 1010.7 hPa | 0 mm | 0 m/s | 407 W/m² | - |
| 1777998686 | 26.67° C | 26% | 1010.7 hPa | 0 mm | 0 m/s | 336 W/m² | - |
* Rain latest hour (hover to see other rain measurements)
** Current wind speed in m/s (hover to see current wind gust speed)